Regional Weather Roundup
Issued by NWS Goodland, KS

Home | Current Version | Previous Version | Graphics & Text | Print | Product List | Glossary Off
Versions: 1 2 3 4 5 6 7 8 9 10 11 12 13 14 15 16 17 18 19 20 21 22 23 24 25 26 27 28 29 30 31 32 33 34 35 36 37 38 39 40 41 42 43 44 45 46 47 48 49 50

000
ASUS43 KGLD 290908
RWRGLD

GOODLAND FORECAST AREA HOURLY WEATHER ROUNDUP
NATIONAL WEATHER SERVICE GOODLAND KS
300 AM MDT FRI MAY 29 2015

...OFFICIAL OBSERVATIONS...

CITY           SKY/WX    TMP DP  RH WIND       PRES   REMARKS
GOODLAND KS    PTCLDY    52  49  89 W9        30.04S
HILL CITY KS   CLOUDY    56  53  90 W7        29.97R
IMPERIAL NEB   CLOUDY    56  52  86 NW6       30.00R
MCCOOK NEB     MOCLDY    54  52  93 SW14      29.96F
AKRON CO       CLEAR     49  48  97 W10       30.09S
BURLINGTON CO  MOCLDY    52  48  86 W7        30.06S
LIMON CO       MOCLDY    49  45  86 W8        30.13S
$$

...UNOFFICIAL OBSERVATIONS...

CITY           SKY/WX    TMP DP  RH WIND       PRES   REMARKS
COLBY KS       CLEAR     52  52 100 SW3       30.02S
LENORA KS        N/A     56  32  40 MISG        N/A
NORTON KS      CLEAR     55  48  76 W8        29.95
SHARON SPRINGS   N/A     53  51  94 MISG        N/A
KIT CARSON CO    N/A     56  49  79 MISG        N/A
$$


USA.gov is the U.S. government's official web portal to all federal, state and local government web resources and services.